Flag for U.S.A. Weather past 2 weeks in Bloomington, Illinois, U.S.A.

Now
81 °F

Sunny.


Feels Like: 81 °F
Forecast: 64 / 86 °F
Wind: 13 mph from Northwest

Location: Bloomington / Normal

Current Time: Jul 31, 2015 at 8:46:14 PM

Latest Report: Jul 31, 2015 at 7:56 PM


Visibility: 10 mi

Pressure: 29.97 "Hg

Humidity: 47%

Dew point: 59 °F

Location of BloomingtonLocation

Historic Weather in Bloomington — Graph

°F

Bloomington temperature yesterday

Maximum temperature yesterday: 88 °F (at 3:56 PM)
Minimum temperature yesterday: 67 °F (at 4:56 AM)
Average temperature yesterday: 78 °F

Past Weeks' High & Low Weather Summary

 TemperatureHumidityPressure
High91 °F (Jul 17, 2:56 PM)100% (Jul 17, 12:04 AM)30.11 "Hg (Jul 17, 12:04 AM)
Low62 °F (Jul 22, 3:56 AM)32% (Jul 31, 2:56 PM)29.75 "Hg (Jul 20, 7:56 PM)
Average77 °F78%29.93 "Hg
* Reported Jul 16 7:56 PM — Jul 31 7:56 PM, Bloomington, Weather by CustomWeather, © 2015

Note: Actual official high and low records may vary slightly from our data, if they occured in-between our weather recording intervals... More about our weather records

Advertising

Bloomington weather history for previous 24 hours

 ConditionsComfort  
Time TempWeatherWind HumidityBarometerVisibility
7:56 PM
Fri, Jul 31
81 °FSunny.13 mph47%29.97 "Hg10 mi
6:56 PM85 °FSunny.12 mph43%29.97 "Hg10 mi
5:56 PM87 °FSunny.16 mph39%29.97 "Hg10 mi
4:56 PM88 °FSunny.15 mph38%29.98 "Hg10 mi
3:56 PM88 °FSunny.16 mph36%29.99 "Hg10 mi
2:56 PM88 °FSunny.17 mph32%30.00 "Hg10 mi
1:56 PM88 °FSunny.20 mph38%30.01 "Hg10 mi
12:56 PM87 °FPassing clouds.20 mph51%30.03 "Hg10 mi
11:56 AM85 °FSunny.17 mph57%30.04 "Hg10 mi
10:56 AM83 °FSunny.13 mph63%30.05 "Hg10 mi
9:56 AM81 °FSunny.12 mph67%30.05 "Hg10 mi
8:56 AM77 °FSunny.9 mph74%30.06 "Hg10 mi
7:56 AM74 °FSunny.8 mph76%30.07 "Hg10 mi
6:56 AM70 °FSunny.7 mph87%30.06 "Hg10 mi
5:56 AM68 °FClear.7 mph90%30.05 "Hg10 mi
4:56 AM69 °FClear.8 mph87%30.05 "Hg10 mi
3:56 AM69 °FClear.8 mph90%30.06 "Hg10 mi
2:56 AM70 °FClear.7 mph87%30.06 "Hg10 mi
1:56 AM71 °FClear.7 mph84%30.06 "Hg10 mi
12:56 AM72 °FClear.8 mph81%30.06 "Hg10 mi
11:56 PM
Thu, Jul 30
73 °FClear.7 mph79%30.05 "Hg10 mi
10:56 PM75 °FClear.7 mph71%30.05 "Hg10 mi
9:56 PM77 °FClear.8 mph66%30.04 "Hg10 mi
8:56 PM78 °FSunny.8 mph64%30.03 "Hg10 mi
Weather by CustomWeather, © 2015

See weather overviewHow to use our weather pages